N5FKU Weather Reports


Display with metric or nautical units.
time (UTC)temp
F
wind
direction
speed
MPH
gust
MPH
rain 1hr
in
rain 24hr
in
rain mn
in
humidity
%
barometer
mb
20260906230018 99 197 2.0 5.0 0.00 0.00 0.00 39 1012.7
20260906225018 99 200 2.0 6.0 0.00 0.00 0.00 39 1012.8
20260906224039 99 211 3.0 6.0 0.00 0.00 0.00 40 1012.8
20260906223042 99 181 3.0 8.0 0.00 0.00 0.00 39 1012.8
20260906222019 99 177 3.0 8.0 0.00 0.00 0.00 39 1012.9
20260906221019 100 157 3.0 8.0 0.00 0.00 0.00 38 1012.8
20260906220019 99 245 3.0 6.0 0.00 0.00 0.00 39 1012.8
20260906215019 99 155 3.0 6.0 0.00 0.00 0.00 39 1012.8
20260906214020 100 208 2.0 6.0 0.00 0.00 0.00 39 1012.9
20260906213020 99 189 3.0 6.0 0.00 0.00 0.00 38 1013.1
20260906212020 100 168 3.0 8.0 0.00 0.00 0.00 38 1013.2
20260906211020 101 197 3.0 7.0 0.00 0.00 0.00 39 1013.3
20260906210020 100 210 3.0 7.0 0.00 0.00 0.00 39 1013.5
20260906205020 99 181 3.0 6.0 0.00 0.00 0.00 41 1013.7
20260906204038 99 167 4.0 7.0 0.00 0.00 0.00 41 1013.8
20260906203020 98 181 3.0 7.0 0.00 0.00 0.00 42 1013.9
20260906202021 100 186 3.0 9.0 0.00 0.00 0.00 41 1014.0
20260906201022 100 192 3.0 7.0 0.00 0.00 0.00 41 1014.1
20260906200019 99 221 3.0 7.0 0.00 0.00 0.00 42 1014.2
20260906195018 98 192 3.0 8.0 0.00 0.00 0.00 43 1014.3
20260906194018 97 216 3.0 6.0 0.00 0.00 0.00 45 1014.4
20260906193019 97 193 3.0 6.0 0.00 0.00 0.00 44 1014.6
20260906192019 98 159 4.0 8.0 0.00 0.00 0.00 44 1014.6
20260906191019 97 200 3.0 11.0 0.00 0.00 0.00 45 1014.8
20260906190019 97 188 3.0 8.0 0.00 0.00 0.00 44 1014.8
20260906185019 97 209 3.0 7.0 0.00 0.00 0.00 45 1014.9
20260906184019 97 172 4.0 9.0 0.00 0.00 0.00 45 1015.1
20260906183019 96 198 4.0 9.0 0.00 0.00 0.00 45 1015.1
20260906182020 97 170 4.0 8.0 0.00 0.00 0.00 44 1015.3
20260906181020 97 206 3.0 8.0 0.00 0.00 0.00 44 1015.4
20260906180020 96 202 4.0 8.0 0.00 0.00 0.00 46 1015.5
20260906175020 95 196 3.0 8.0 0.00 0.00 0.00 47 1015.7
20260906174021 95 216 3.0 6.0 0.00 0.00 0.00 47 1015.8
20260906173018 95 202 3.0 6.0 0.00 0.00 0.00 47 1015.9
20260906172021 95 222 2.0 6.0 0.00 0.00 0.00 49 1016.1
20260906171021 96 217 3.0 7.0 0.00 0.00 0.00 49 1016.2
20260906170021 95 248 2.0 5.0 0.00 0.00 0.00 48 1016.3
20260906165038 95 226 2.0 6.0 0.00 0.00 0.00 48 1016.3
20260906164038 94 283 2.0 7.0 0.00 0.00 0.00 52 1016.4
20260906163021 93 196 2.0 6.0 0.00 0.00 0.00 52 1016.4
20260906162019 93 152 3.0 7.0 0.00 0.00 0.00 53 1016.3
20260906161019 92 217 3.0 7.0 0.00 0.00 0.00 54 1016.3
20260906160019 91 161 3.0 7.0 0.00 0.00 0.00 55 1016.3
20260906155019 91 172 3.0 6.0 0.00 0.00 0.00 55 1016.3
20260906154019 91 168 2.0 6.0 0.00 0.00 0.00 56 1016.3
20260906153037 91 186 3.0 5.0 0.00 0.00 0.00 58 1016.2
20260906152019 90 235 2.0 6.0 0.00 0.00 0.00 60 1016.1
20260906151040 90 197 2.0 7.0 0.00 0.00 0.00 61 1016.0
20260906150020 90 201 2.0 6.0 0.00 0.00 0.00 62 1016.0
20260906145020 90 159 1.0 4.0 0.00 0.00 0.00 61 1016.0
20260906144020 91 200 1.0 4.0 0.00 0.00 0.00 60 1016.0
20260906143020 91 279 1.0 4.0 0.00 0.00 0.00 59 1016.1
20260906142021 89 257 1.0 3.0 0.00 0.00 0.00 63 1016.2
20260906141021 89 289 1.0 2.0 0.00 0.00 0.00 63 1016.2
20260906140021 87 278 1.0 2.0 0.00 0.00 0.00 66 1016.1
20260906135018 86 204 2.0 7.0 0.00 0.00 0.00 69 1016.1
20260906134021 85 156 1.0 3.0 0.00 0.00 0.00 71 1016.1
20260906133042 85 159 1.0 3.0 0.00 0.00 0.00 71 1016.1
20260906132019 84 159 1.0 3.0 0.00 0.00 0.00 72 1016.2
20260906131019 84 219 1.0 2.0 0.00 0.00 0.00 74 1016.2
20260906130019 82 221 0.0 1.0 0.00 0.00 0.00 76 1016.0
20260906125039 81 220 1.0 2.0 0.00 0.00 0.00 78 1016.0
20260906124019 80 187 0.0 1.0 0.00 0.00 0.00 80 1015.9
20260906123020 80 0.0 0.0 0.00 0.00 0.00 81 1015.9
20260906122039 80 199 0.0 1.0 0.00 0.00 0.00 80 1015.8
20260906121039 80 216 0.0 1.0 0.00 0.00 0.00 80 1015.6
20260906120020 80 243 0.0 0.0 0.00 0.00 0.00 79 1015.6
20260906115020 80 242 0.0 1.0 0.00 0.00 0.00 79 1015.6
20260906114020 80 176 0.0 1.0 0.00 0.00 0.00 79 1015.5
20260906113041 80 197 1.0 2.0 0.00 0.00 0.00 79 1015.4
20260906112021 80 211 0.0 0.0 0.00 0.00 0.00 79 1015.4
20260906111021 80 0.0 0.0 0.00 0.00 0.00 79 1015.3
20260906110021 80 243 0.0 0.0 0.00 0.00 0.00 79 1015.2
20260906105041 80 201 0.0 1.0 0.00 0.00 0.00 79 1015.2
20260906104041 80 0.0 0.0 0.00 0.00 0.00 79 1015.1
20260906103021 80 0.0 0.0 0.00 0.00 0.00 78 1015.0
20260906102041 81 183 0.0 1.0 0.00 0.00 0.00 78 1015.0
20260906101022 81 242 0.0 1.0 0.00 0.00 0.00 78 1015.0
20260906100022 81 214 0.0 1.0 0.00 0.00 0.00 77 1015.0
20260906095022 81 173 0.0 2.0 0.00 0.00 0.00 77 1014.9
20260906094042 81 0.0 0.0 0.00 0.00 0.00 77 1014.8
20260906093022 81 203 0.0 0.0 0.00 0.00 0.00 77 1014.7
20260906092022 81 0.0 0.0 0.00 0.00 0.00 76 1014.6
20260906091023 82 252 0.0 1.0 0.00 0.00 0.00 76 1014.6
20260906090023 82 239 1.0 2.0 0.00 0.00 0.00 76 1014.5
20260906085023 82 205 1.0 2.0 0.00 0.00 0.00 75 1014.4
20260906084023 82 217 1.0 2.0 0.00 0.00 0.00 75 1014.4
20260906083024 82 256 1.0 2.0 0.00 0.00 0.00 75 1014.3
20260906082044 82 242 1.0 3.0 0.00 0.00 0.00 75 1014.3
20260906081044 82 201 1.0 2.0 0.00 0.00 0.00 75 1014.3
20260906080025 82 211 0.0 1.0 0.00 0.00 0.00 74 1014.5
20260906075059 82 179 1.0 2.0 0.00 0.00 0.00 74 1014.5
20260906074025 83 0.0 0.0 0.00 0.00 0.00 73 1014.4
20260906073044 83 298 0.0 1.0 0.00 0.00 0.00 72 1014.4
20260906072025 83 261 0.0 1.0 0.00 0.00 0.00 71 1014.6
20260906071025 84 236 0.0 1.0 0.00 0.00 0.00 71 1014.7
20260906070025 84 195 0.0 2.0 0.00 0.00 0.00 70 1014.7
20260906065025 84 197 0.0 1.0 0.00 0.00 0.00 69 1014.7
20260906064025 84 208 1.0 3.0 0.00 0.00 0.00 69 1014.7
20260906063025 84 211 1.0 2.0 0.00 0.00 0.00 69 1014.6
20260906062045 84 184 1.0 3.0 0.00 0.00 0.00 68 1014.6
20260906061026 84 215 1.0 2.0 0.00 0.00 0.00 68 1014.7
20260906060026 85 194 1.0 2.0 0.00 0.00 0.00 67 1014.7
20260906055026 85 191 0.0 2.0 0.00 0.00 0.00 67 1014.7
20260906054026 85 213 0.0 1.0 0.00 0.00 0.00 66 1014.7
20260906053027 85 272 1.0 2.0 0.00 0.00 0.00 66 1014.6
20260906052027 86 228 1.0 2.0 0.00 0.00 0.00 66 1014.6
20260906051047 86 182 1.0 3.0 0.00 0.00 0.00 65 1014.7
20260906050047 86 218 1.0 4.0 0.00 0.00 0.00 64 1014.7
20260906045027 86 188 1.0 3.0 0.00 0.00 0.00 64 1014.7
20260906044028 87 195 2.0 3.0 0.00 0.00 0.00 63 1014.7
20260906043048 87 179 2.0 4.0 0.00 0.00 0.00 63 1014.7
20260906042048 87 214 1.0 3.0 0.00 0.00 0.00 62 1014.6
20260906041028 87 213 1.0 2.0 0.00 0.00 0.00 62 1014.6
20260906040020 87 221 1.0 4.0 0.00 0.00 0.00 62 1014.6
20260906035022 87 238 1.0 5.0 0.00 0.00 0.00 61 1014.6
20260906034017 88 232 1.0 4.0 0.00 0.00 0.00 60 1014.6
20260906033017 88 192 2.0 4.0 0.00 0.00 0.00 59 1014.5
20260906032018 88 237 1.0 3.0 0.00 0.00 0.00 58 1014.6
20260906031021 89 275 1.0 3.0 0.00 0.00 0.00 57 1014.7
20260906030021 89 239 1.0 3.0 0.00 0.00 0.00 57 1014.6
20260906025018 89 223 2.0 4.0 0.00 0.00 0.00 56 1014.5
20260906024018 89 179 2.0 5.0 0.00 0.00 0.00 56 1014.3
20260906023038 89 198 2.0 5.0 0.00 0.00 0.00 55 1014.2
20260906022021 90 209 1.0 4.0 0.00 0.00 0.00 55 1014.0
20260906021019 90 192 2.0 6.0 0.00 0.00 0.00 54 1013.9
20260906020019 91 185 2.0 6.0 0.00 0.00 0.00 53 1013.8
20260906015019 92 207 2.0 7.0 0.00 0.00 0.00 52 1013.7
20260906014019 93 201 3.0 11.0 0.00 0.00 0.00 50 1013.5
20260906013019 94 174 4.0 9.0 0.00 0.00 0.00 48 1013.3
20260906012019 95 191 3.0 7.0 0.00 0.00 0.00 47 1013.1
20260906011020 95 196 2.0 7.0 0.00 0.00 0.00 44 1012.9
20260906010020 96 273 1.0 3.0 0.00 0.00 0.00 43 1012.8
20260906005020 96 223 2.0 6.0 0.00 0.00 0.00 42 1012.8
20260906004017 97 207 2.0 4.0 0.00 0.00 0.00 41 1012.7
20260906003020 98 209 2.0 6.0 0.00 0.00 0.00 40 1012.7
20260906002021 98 210 2.0 5.0 0.00 0.00 0.00 39 1012.7
20260906001020 98 186 3.0 7.0 0.00 0.00 0.00 39 1012.7
20260906000018 99 175 3.0 8.0 0.00 0.00 0.00 38 1012.6
20260905235018 99 177 2.0 5.0 0.00 0.00 0.00 38 1012.4
20260905234018 99 202 2.0 6.0 0.00 0.00 0.00 38 1012.5
20260905233019 99 218 2.0 5.0 0.00 0.00 0.00 38 1012.5
20260905232018 100 207 4.0 7.0 0.00 0.00 0.00 37 1012.5
20260905231018 101 203 3.0 8.0 0.00 0.00 0.00 36 1012.5